This demonstration page uses our WeatherBlox Daily Observations layout. Learn more.

Hourly Observations for May 21, 2015

Temp ( °F °C ) Dew Point ( °F °C ) Humidity (%) Winds ( mph kmh ) Pressure ( in mb ) Visibility ( mi km ) Precip ( " mm )
12:15 am 00:15 Clear 41 5 37 3 87 87 NW 5 7 30.36 1028 10 16.09344 0 0
12:35 am 00:35 Clear 37 3 36 2 93 93 W 6 9 30.36 1028 10 16.09344 0 0
12:55 am 00:55 Clear 39 4 37 3 93 93 Calm 30.39 1029 10 16.09344 0 0
1:15 am 01:15 Clear 39 4 37 3 93 93 W 3 6 30.39 1029 10 16.09344 0 0
1:35 am 01:35 Clear 37 3 36 2 93 93 W 5 7 30.39 1029 10 16.09344 0 0
1:55 am 01:55 Clear 39 4 37 3 93 93 Calm 30.36 1028 10 16.09344 0 0
2:15 am 02:15 Clear 37 3 36 2 93 93 W 6 9 30.36 1028 10 16.09344 0 0
2:35 am 02:35 Clear 39 4 37 3 93 93 W 5 7 30.36 1028 10 16.09344 0 0
2:55 am 02:55 Clear 39 4 37 3 93 93 W 5 7 30.36 1028 10 16.09344 0 0
3:15 am 03:15 Clear 39 4 37 3 93 93 W 5 7 30.36 1028 10 16.09344 0 0
3:35 am 03:35 Clear 39 4 36 2 87 87 W 6 9 30.36 1028 10 16.09344 0 0
3:55 am 03:55 Clear 37 3 36 2 93 93 W 6 9 30.36 1028 10 16.09344 0 0
4:15 am 04:15 Clear 37 3 36 2 93 93 W 5 7 30.36 1028 10 16.09344 0 0
4:35 am 04:35 Clear 37 3 36 2 93 93 WNW 5 7 30.36 1028 10 16.09344 0 0
4:55 am 04:55 Clear 37 3 36 2 93 93 W 6 9 30.36 1028 10 16.09344 0 0
5:15 am 05:15 Clear 37 3 36 2 93 93 W 5 7 30.36 1028 10 16.09344 0 0
5:35 am 05:35 Clear 37 3 36 2 93 93 WNW 5 7 30.36 1028 10 16.09344 0 0
5:55 am 05:55 Clear 39 4 36 2 87 87 W 7 11 30.36 1028 10 16.09344 0 0
6:15 am 06:15 Clear 37 3 36 2 93 93 W 5 7 30.36 1028 10 16.09344 0 0
6:35 am 06:35 Sunny 37 3 36 2 93 93 W 5 7 30.36 1028 10 16.09344 0 0
6:55 am 06:55 Sunny 39 4 36 2 87 87 WNW 5 7 30.36 1028 10 16.09344 0 0
7:15 am 07:15 Sunny 41 5 37 3 87 87 WNW 5 7 30.36 1028 10 16.09344 0 0
7:35 am 07:35 Sunny 41 5 37 3 87 87 WNW 3 6 30.39 1029 10 16.09344 0 0
7:55 am 07:55 Sunny 43 6 39 4 87 87 NW 6 9 30.33 1027 10 16.09344 0 0
8:15 am 08:15 Sunny 45 7 41 5 87 87 W 5 7 30.33 1027 10 16.09344 0 0
8:35 am 08:35 Sunny 46 8 41 5 82 82 WNW 3 6 30.33 1027 10 16.09344 0 0
8:55 am 08:55 Sunny 48 9 41 5 76 76 NW 6 9 30.3 1026 10 16.09344 0 0
9:15 am 09:15 Sunny 50 10 41 5 71 71 NNW 6 9 30.3 1026 10 16.09344 0 0
9:35 am 09:35 Sunny 50 10 41 5 71 71 NNW 5 7 30.3 1026 10 16.09344 0 0
9:55 am 09:55 Sunny 52 11 41 5 67 67 N 6 9 30.3 1026 10 16.09344 0 0
10:15 am 10:15 Sunny 52 11 39 4 62 62 N 5 7 30.3 1026 10 16.09344 0 0
10:35 am 10:35 Sunny 54 12 37 3 54 54 NNW 5 7 30.27 1025 10 16.09344 0 0
10:55 am 10:55 Sunny 54 12 37 3 54 54 WNW 5 7 30.27 1025 10 16.09344 0 0
11:15 am 11:15 Sunny 54 12 36 2 51 51 Calm 30.27 1025 10 16.09344 0 0
11:35 am 11:35 Sunny 55 13 36 2 47 47 W 5 7 30.27 1025 10 16.09344 0 0
11:55 am 11:55 Sunny 55 13 36 2 47 47 S 3 6 30.27 1025 10 16.09344 0 0
12:15 pm 12:15 Sunny 57 14 37 3 48 48 WNW 5 7 30.27 1025 10 16.09344 0 0
12:35 pm 12:35 Sunny 57 14 37 3 48 48 SSE 3 6 30.27 1025 10 16.09344 0 0
12:55 pm 12:55 Sunny 55 13 36 2 47 47 Calm 30.27 1025 10 16.09344 0 0
1:15 pm 13:15 Sunny 57 14 37 3 48 48 SSE 5 7 30.27 1025 10 16.09344 0 0
1:35 pm 13:35 Sunny 59 15 36 2 42 42 Calm 30.27 1025 10 16.09344 0 0
1:55 pm 13:55 Sunny 59 15 36 2 42 42 Calm 30.21 1023 10 16.09344 0 0
2:15 pm 14:15 Sunny 59 15 36 2 42 42 WSW 5 7 30.21 1023 10 16.09344 0 0
2:35 pm 14:35 Sunny 59 15 36 2 42 42 Calm 30.21 1023 10 16.09344 0 0
2:55 pm 14:55 Sunny 59 15 36 2 42 42 S 6 9 30.21 1023 10 16.09344 0 0
3:15 pm 15:15 Sunny 61 16 34 1 36 36 ESE 6 9 30.21 1023 10 16.09344 0 0
3:35 pm 15:35 Sunny 61 16 36 2 39 39 Calm 30.18 1022 7 11.265408 0 0
3:55 pm 15:55 Sunny 63 17 34 1 34 34 Calm 30.18 1022 10 16.09344 0 0
4:15 pm 16:15 Sunny 63 17 36 2 37 37 S 8 13 30.18 1022 10 16.09344 0 0
4:35 pm 16:35 Sunny 63 17 34 1 34 34 SSW 5 7 30.18 1022 10 16.09344 0 0
4:55 pm 16:55 Sunny 63 17 34 1 34 34 SSE 8 13 30.18 1022 10 16.09344 0 0
5:15 pm 17:15 Sunny 63 17 32 0 32 32 S 9 15 30.15 1021 10 16.09344 0 0
5:35 pm 17:35 Sunny 63 17 36 2 37 37 SW 6 9 30.15 1021 10 16.09344 0 0
5:55 pm 17:55 Sunny 63 17 34 1 34 34 SE 5 7 30.15 1021 10 16.09344 0 0
6:15 pm 18:15 Sunny 63 17 36 2 37 37 S 3 6 30.15 1021 10 16.09344 0 0
6:35 pm 18:35 Sunny 63 17 34 1 34 34 SSE 7 11 30.12 1020 10 16.09344 0 0
6:55 pm 18:55 Sunny 63 17 34 1 34 34 S 7 11 30.12 1020 10 16.09344 0 0
7:15 pm 19:15 Sunny 63 17 36 2 37 37 S 8 13 30.12 1020 10 16.09344 0 0
7:35 pm 19:35 Sunny 61 16 36 2 39 39 SSW 8 13 30.12 1020 10 16.09344 0 0
7:55 pm 19:55 Sunny 61 16 36 2 39 39 S 5 7 30.12 1020 10 16.09344 0 0
8:15 pm 20:15 Sunny 59 15 36 2 42 42 S 6 9 30.12 1020 10 16.09344 0 0
8:35 pm 20:35 Sunny 59 15 37 3 45 45 S 5 7 30.12 1020 10 16.09344 0 0
8:55 pm 20:55 Clear 59 15 37 3 45 45 S 6 9 30.12 1020 10 16.09344 0 0
9:15 pm 21:15 Clear 57 14 39 4 51 51 S 6 9 30.18 1022 10 16.09344 0 0
9:35 pm 21:35 Clear 55 13 39 4 55 55 S 6 9 30.18 1022 10 16.09344 0 0
9:55 pm 21:55 Clear 54 12 39 4 58 58 S 5 7 30.18 1022 10 16.09344 0 0
10:15 pm 22:15 Clear 54 12 41 5 63 63 S 5 7 30.18 1022 10 16.09344 0 0
10:35 pm 22:35 Clear 52 11 41 5 67 67 S 6 9 30.18 1022 10 16.09344 0 0
10:55 pm 22:55 Clear 52 11 41 5 67 67 S 5 7 30.18 1022 10 16.09344 0 0
11:15 pm 23:15 Clear 50 10 41 5 71 71 S 3 6 30.21 1023 10 16.09344 0 0
11:35 pm 23:35 Clear 50 10 41 5 71 71 S 5 7 30.24 1024 10 16.09344 0 0
11:55 pm 23:55 Clear 52 11 37 3 58 58 S 6 9 30.24 1024 10 16.09344 0 0

Powered by AerisWeather